Time,TemperatureF,DewpointF,PressureIn,WindDirection,WindDirectionDegrees,WindSpeedMPH,WindSpeedGustMPH,Humidity,HourlyPrecipIn,Conditions,Clouds,dailyrainin,SoftwareType,DateUTC
2013-06-02 07:52:00,66.0,63.0,29.92,WNW,300,2.0,-999.0,91,-99.99,,,-99.99,,2013-06-02 12:52:00,
2013-06-02 08:01:00,67.0,63.0,29.92,WNW,302,0.0,-999.0,88,-99.99,,,-99.99,,2013-06-02 13:01:00,
2013-06-02 08:11:00,67.0,63.0,29.92,WNW,302,0.0,-999.0,88,-99.99,,,-99.99,,2013-06-02 13:11:00,
2013-06-02 08:21:00,67.0,61.0,29.93,NNW,329,2.0,-999.0,81,-99.99,,,-99.99,,2013-06-02 13:21:00,
2013-06-02 08:32:00,68.0,61.0,29.92,NNW,333,2.0,-999.0,78,-99.99,,,-99.99,,2013-06-02 13:32:00,
2013-06-02 08:42:00,68.0,61.0,29.92,NNW,333,2.0,-999.0,78,-99.99,,,-99.99,,2013-06-02 13:42:00,
2013-06-02 08:52:00,69.0,61.0,29.93,NNW,342,3.0,-999.0,75,-99.99,,,-99.99,,2013-06-02 13:52:00,
2013-06-02 09:01:00,69.0,61.0,29.93,North,355,1.0,-999.0,75,-99.99,,,-99.99,,2013-06-02 14:01:00,
2013-06-02 09:11:00,69.0,61.0,29.93,North,355,1.0,-999.0,75,-99.99,,,-99.99,,2013-06-02 14:11:00,
2013-06-02 09:21:00,69.0,60.0,29.93,North,360,3.0,-999.0,74,-99.99,,,-99.99,,2013-06-02 14:21:00,
2013-06-02 09:32:00,70.0,62.0,29.93,North,360,1.0,-999.0,75,-99.99,,,-99.99,,2013-06-02 14:32:00,
2013-06-02 09:42:00,70.0,62.0,29.93,North,360,1.0,-999.0,75,-99.99,,,-99.99,,2013-06-02 14:42:00,
2013-06-02 09:52:00,71.0,62.0,29.93,North,350,3.0,-999.0,72,-99.99,,,-99.99,,2013-06-02 14:52:00,
2013-06-02 10:01:00,71.0,62.0,29.93,NNE,19,2.0,-999.0,72,-99.99,,,-99.99,,2013-06-02 15:01:00,
2013-06-02 10:11:00,71.0,62.0,29.93,NNE,19,2.0,-999.0,72,-99.99,,,-99.99,,2013-06-02 15:11:00,
2013-06-02 10:21:00,72.0,62.0,29.94,NNW,331,3.0,-999.0,70,-99.99,,,-99.99,,2013-06-02 15:21:00,
2013-06-02 10:32:00,72.0,61.0,29.94,NNW,347,2.0,-999.0,69,-99.99,,,-99.99,,2013-06-02 15:32:00,
2013-06-02 10:43:00,72.0,61.0,29.94,NW,314,2.0,-999.0,69,-99.99,,,-99.99,,2013-06-02 15:43:00,
2013-06-02 10:53:00,72.0,61.0,29.94,NW,314,2.0,-999.0,69,-99.99,,,-99.99,,2013-06-02 15:53:00,
2013-06-02 11:03:00,72.0,61.0,29.94,NW,310,3.0,-999.0,69,-99.99,,,-99.99,,2013-06-02 16:03:00,
2013-06-02 11:13:00,72.0,61.0,29.94,NW,310,3.0,-999.0,69,-99.99,,,-99.99,,2013-06-02 16:13:00,
2013-06-02 11:23:00,73.0,62.0,29.94,North,5,3.0,-999.0,68,-99.99,,,-99.99,,2013-06-02 16:23:00,
2013-06-02 11:33:00,73.0,61.0,29.95,NNE,20,5.0,-999.0,66,-99.99,,,-99.99,,2013-06-02 16:33:00,
2013-06-02 11:42:00,73.0,61.0,29.95,NNE,20,5.0,-999.0,66,-99.99,,,-99.99,,2013-06-02 16:42:00,
2013-06-02 11:52:00,74.0,61.0,29.95,WNW,286,4.0,-999.0,65,-99.99,,,-99.99,,2013-06-02 16:52:00,
2013-06-02 12:02:00,75.0,62.0,29.95,North,10,3.0,-999.0,63,-99.99,,,-99.99,,2013-06-02 17:02:00,
2013-06-02 12:12:00,75.0,62.0,29.95,North,10,3.0,-999.0,63,-99.99,,,-99.99,,2013-06-02 17:12:00,
2013-06-02 12:22:00,74.0,60.0,29.94,NNE,21,3.0,-999.0,62,-99.99,,,-99.99,,2013-06-02 17:22:00,
2013-06-02 12:32:00,75.0,61.0,29.94,West,265,3.0,-999.0,62,-99.99,,,-99.99,,2013-06-02 17:32:00,
2013-06-02 12:42:00,76.0,62.0,29.94,North,355,3.0,-999.0,62,-99.99,,,-99.99,,2013-06-02 17:42:00,
2013-06-02 12:52:00,76.0,62.0,29.94,North,355,3.0,-999.0,62,-99.99,,,-99.99,,2013-06-02 17:52:00,
2013-06-02 13:01:00,75.0,61.0,29.93,NNW,342,3.0,-999.0,61,-99.99,,,-99.99,,2013-06-02 18:01:00,
2013-06-02 13:11:00,75.0,61.0,29.93,NNW,342,3.0,-999.0,61,-99.99,,,-99.99,,2013-06-02 18:11:00,
2013-06-02 13:21:00,75.0,61.0,29.93,North,360,1.0,-999.0,62,-99.99,,,-99.99,,2013-06-02 18:21:00,
2013-06-02 13:32:00,76.0,60.0,29.93,NNW,340,1.0,-999.0,58,-99.99,,,-99.99,,2013-06-02 18:32:00,
2013-06-02 13:42:00,76.0,61.0,29.93,WNW,296,2.0,-999.0,60,-99.99,,,-99.99,,2013-06-02 18:42:00,
2013-06-02 13:52:00,76.0,61.0,29.93,WNW,296,2.0,-999.0,60,-99.99,,,-99.99,,2013-06-02 18:52:00,
2013-06-02 14:01:00,76.0,61.0,29.93,NW,309,3.0,-999.0,60,-99.99,,,-99.99,,2013-06-02 19:01:00,
2013-06-02 14:11:00,76.0,61.0,29.93,NW,309,3.0,-999.0,60,-99.99,,,-99.99,,2013-06-02 19:11:00,
2013-06-02 14:21:00,76.0,62.0,29.93,North,355,4.0,-999.0,61,-99.99,,,-99.99,,2013-06-02 19:21:00,
2013-06-02 14:32:00,77.0,62.0,29.92,NW,309,2.0,-999.0,59,-99.99,,,-99.99,,2013-06-02 19:32:00,
2013-06-02 14:42:00,77.0,62.0,29.92,NW,309,2.0,-999.0,59,-99.99,,,-99.99,,2013-06-02 19:42:00,
2013-06-02 14:52:00,77.0,61.0,29.93,WNW,290,3.0,-999.0,58,-99.99,,,-99.99,,2013-06-02 19:52:00,
2013-06-02 15:02:00,77.0,61.0,29.93,WNW,290,3.0,-999.0,57,-99.99,,,-99.99,,2013-06-02 20:02:00,
2013-06-02 15:11:00,77.0,61.0,29.93,WNW,290,3.0,-999.0,57,-99.99,,,-99.99,,2013-06-02 20:11:00,
2013-06-02 15:21:00,77.0,61.0,29.94,WNW,285,1.0,-999.0,57,-99.99,,,-99.99,,2013-06-02 20:21:00,
2013-06-02 15:32:00,77.0,61.0,29.93,WNW,290,2.0,-999.0,58,-99.99,,,-99.99,,2013-06-02 20:32:00,
2013-06-02 15:42:00,77.0,61.0,29.93,WNW,290,2.0,-999.0,58,-99.99,,,-99.99,,2013-06-02 20:42:00,
2013-06-02 15:52:00,77.0,60.0,29.94,NNW,328,1.0,-999.0,56,-99.99,,,-99.99,,2013-06-02 20:52:00,
2013-06-02 16:01:00,77.0,61.0,29.93,North,350,1.0,-999.0,57,-99.99,,,-99.99,,2013-06-02 21:01:00,
2013-06-02 16:11:00,77.0,61.0,29.93,North,350,1.0,-999.0,57,-99.99,,,-99.99,,2013-06-02 21:11:00,
2013-06-02 16:21:00,78.0,60.0,29.93,WNW,299,2.0,-999.0,54,-99.99,,,-99.99,,2013-06-02 21:21:00,
2013-06-02 16:33:00,77.0,60.0,29.92,North,355,1.0,-999.0,55,-99.99,,,-99.99,,2013-06-02 21:33:00,
2013-06-02 16:42:00,77.0,60.0,29.92,North,355,1.0,-999.0,55,-99.99,,,-99.99,,2013-06-02 21:42:00,
2013-06-02 16:53:00,77.0,60.0,29.91,WNW,303,0.0,-999.0,55,-99.99,,,-99.99,,2013-06-02 21:53:00,
2013-06-02 17:03:00,78.0,61.0,29.91,NNW,341,1.0,-999.0,55,-99.99,,,-99.99,,2013-06-02 22:03:00,
2013-06-02 17:12:00,78.0,61.0,29.91,NNW,341,1.0,-999.0,55,-99.99,,,-99.99,,2013-06-02 22:12:00,
2013-06-02 17:23:00,78.0,62.0,29.91,WNW,296,1.0,-999.0,57,-99.99,,,-99.99,,2013-06-02 22:23:00,
2013-06-02 17:33:00,77.0,60.0,29.90,NNW,340,1.0,-999.0,55,-99.99,,,-99.99,,2013-06-02 22:33:00,
2013-06-02 17:42:00,77.0,60.0,29.90,NNW,340,1.0,-999.0,55,-99.99,,,-99.99,,2013-06-02 22:42:00,
2013-06-02 17:52:00,76.0,60.0,29.90,North,5,1.0,-999.0,57,-99.99,,,-99.99,,2013-06-02 22:52:00,
2013-06-02 18:02:00,76.0,60.0,29.90,North,5,0.0,-999.0,58,-99.99,,,-99.99,,2013-06-02 23:02:00,
2013-06-02 18:12:00,76.0,60.0,29.90,North,5,0.0,-999.0,58,-99.99,,,-99.99,,2013-06-02 23:12:00,
2013-06-02 18:22:00,76.0,62.0,29.90,North,360,1.0,-999.0,61,-99.99,,,-99.99,,2013-06-02 23:22:00,
2013-06-02 18:32:00,76.0,62.0,29.90,NNE,14,1.0,-999.0,61,-99.99,,,-99.99,,2013-06-02 23:32:00,
2013-06-02 18:42:00,76.0,62.0,29.90,NNE,14,1.0,-999.0,61,-99.99,,,-99.99,,2013-06-02 23:42:00,
2013-06-02 18:52:00,76.0,62.0,29.90,NNE,21,2.0,-999.0,61,-99.99,,,-99.99,,2013-06-02 23:52:00,
2013-06-02 19:01:00,75.0,60.0,29.90,North,10,2.0,-999.0,60,-99.99,,,-99.99,,2013-06-03 00:01:00,
2013-06-02 19:11:00,75.0,61.0,29.91,NNE,20,1.0,-999.0,62,-99.99,,,-99.99,,2013-06-03 00:11:00,
2013-06-02 19:21:00,75.0,61.0,29.91,NNE,20,1.0,-999.0,62,-99.99,,,-99.99,,2013-06-03 00:21:00,
2013-06-02 19:32:00,75.0,61.0,29.91,NNE,19,0.0,-999.0,62,-99.99,,,-99.99,,2013-06-03 00:32:00,
2013-06-02 19:42:00,74.0,61.0,29.91,North,5,0.0,-999.0,64,-99.99,,,-99.99,,2013-06-03 00:42:00,
2013-06-02 19:52:00,74.0,61.0,29.91,North,5,0.0,-999.0,64,-99.99,,,-99.99,,2013-06-03 00:52:00,
2013-06-02 20:01:00,74.0,61.0,29.91,NNE,15,0.0,-999.0,65,-99.99,,,-99.99,,2013-06-03 01:01:00,
2013-06-02 20:11:00,74.0,61.0,29.91,NNE,15,0.0,-999.0,65,-99.99,,,-99.99,,2013-06-03 01:11:00,